Wind_Speed
8 7 8 7 7 6 6 6 7 7 6 6 6 6 6 6 5 5 5 4 4 3 3 3 3 3 3 4 4 4 5 5 6 7 7 8 9 9 9 9 9 9 10
7 7 7 7 6 6 6 5 6 5 5 5 5 5 6 6 6 5 5 5 5 5 4 4 3 4 4 4 4 4 5 6 7 8 8 8 8 9 9 9 9 10 11
6 7 7 6 6 6 5 5 4 4 4 5 5 5 6 6 6 5 6 5 6 6 5 4 4 5 4 5 5 5 6 6 7 7 8 8 8 8 8 9 10 10 11
6 6 6 5 6 6 5 5 4 4 4 5 5 5 5 6 6 5 6 6 6 6 6 6 6 6 6 6 6 6 6 6 6 7 7 8 8 8 8 10 10 10 10
6 6 6 5 5 5 5 5 5 4 4 5 6 5 5 6 6 6 7 7 7 7 7 7 7 7 7 7 7 7 7 7 7 7 8 8 9 10 10 9 9 9 10
6 6 5 5 5 5 5 5 5 5 5 6 6 6 6 7 7 7 7 7 8 8 8 8 7 8 8 8 8 8 8 8 8 8 8 9 10 10 10 10 9 10 10
6 6 6 5 5 5 5 6 6 6 6 6 7 7 8 8 8 8 9 9 9 9 9 9 8 9 9 9 9 9 10 9 8 9 10 10 11 11 11 11 11 11 11
6 7 8 7 7 6 6 7 8 8 8 8 8 8 9 9 9 10 10 11 10 11 10 10 10 10 10 10 10 10 10 10 10 10 11 11 11 11 11 11 11 11 11
9 9 9 9 9 8 8 8 9 9 9 10 10 10 11 11 11 12 12 11 12 12 12 12 12 12 13 12 12 11 11 11 11 11 11 11 12 12 12 12 13 13 12
10 10 11 10 10 10 10 10 10 11 12 12 12 12 12 13 13 13 14 14 14 14 14 14 15 14 13 13 13 13 13 13 13 12 13 13 13 13 13 13 14 14 14
12 12 11 12 12 12 11 11 11 12 13 13 14 14 14 15 15 16 16 15 14 14 14 14 14 15 15 15 14 14 14 14 14 14 14 14 14 14 14 14 15 16 16
14 14 12 13 14 14 14 13 14 14 15 15 15 16 16 16 16 16 16 15 15 15 14 14 15 16 16 16 15 15 15 15 16 16 15 16 16 16 16 16 16 17 17
16 16 15 14 16 16 16 16 16 16 16 16 16 16 16 17 16 16 16 16 16 15 15 16 16 17 18 18 17 16 16 16 17 17 17 17 17 17 17 17 18 18 18
20 19 18 18 18 18 17 17 17 18 18 17 16 17 18 17 17 17 16 16 16 16 17 18 18 18 18 18 17 17 17 18 18 18 18 18 19 18 18 18 19 20 20
20 20 20 20 19 19 19 19 20 19 19 18 17 18 18 18 18 17 17 17 18 17 17 18 18 18 18 18 18 18 18 18 18 19 19 20 20 19 19 20 20 21 21
22 23 23 23 23 22 21 20 20 19 19 19 19 19 19 19 20 19 19 19 18 19 19 19 20 20 20 20 19 19 19 20 20 20 20 21 20 21 21 22 22 23 23
25 24 25 24 24 24 23 21 21 20 19 20 20 20 20 21 21 21 21 21 21 20 20 21 21 22 22 21 21 20 20 21 21 22 22 22 22 22 23 24 24 25 26
26 26 25 25 24 24 23 22 22 21 21 21 22 22 22 21 22 22 22 23 22 22 22 22 22 22 22 23 23 22 22 22 22 23 23 22 23 24 24 25 26 26 26
26 27 26 25 25 24 23 23 23 23 22 22 23 24 23 23 23 23 23 23 23 23 23 23 23 24 23 24 24 24 23 24 24 24 24 24 24 25 25 26 26 26 27
26 26 26 26 26 25 24 24 25 24 24 24 24 25 26 25 25 24 24 24 24 23 24 24 24 25 25 25 25 25 25 25 25 25 26 26 25 26 26 26 27 27 27
26 26 27 27 26 26 26 26 26 27 27 26 26 26 26 26 25 25 25 25 25 24 24 25 25 25 25 25 26 26 26 27 27 27 26 26 27 27 27 27 28 27 28
28 28 28 29 28 28 28 27 28 28 28 28 28 27 26 26 26 25 25 25 25 25 25 26 26 25 25 25 26 26 27 28 28 28 28 28 27 27 27 28 28 28 28
29 30 30 30 31 30 30 30 29 29 29 28 28 27 27 27 27 27 27 26 26 26 26 26 26 26 26 26 27 27 27 28 28 28 28 28 28 28 28 28 29 29 29
30 30 30 31 31 31 31 31 30 30 30 29 29 29 29 28 28 28 27 27 27 27 27 27 27 27 27 27 28 28 28 28 28 28 29 29 29 29 29 29 29 30 30
30 30 30 30 30 30 31 32 32 31 31 31 30 29 29 29 29 29 29 28 27 27 27 26 27 26 26 27 28 29 29 30 30 30 31 31 31 30 30 31 30 31 31
29 30 31 31 31 31 32 33 32 32 31 30 30 30 30 29 29 28 28 28 28 28 28 28 28 27 27 28 29 29 30 31 31 32 32 32 31 31 31 30 31 31 31
Wind_Direction
21 21 20 23 27 31 34 36 38 41 45 49 49 47 41 38 32 22 23 26 21 12 16 8 352 337 323 310 303 299 292 289 285 284 285 288 292 294 293 293 297 298 297
19 19 15 15 17 22 27 28 28 31 34 37 37 34 29 26 21 14 13 9 4 357 347 348 351 343 340 333 323 310 299 292 289 288 290 290 290 293 297 298 297 296 293
9 13 6 2 3 7 11 11 13 21 22 22 18 16 16 9 6 2 0 358 357 356 352 345 344 343 337 327 320 315 306 298 295 294 295 299 300 296 300 296 298 296 294
357 1 355 346 349 352 350 350 356 5 1 358 358 354 356 358 358 353 348 344 347 347 344 340 341 340 332 324 318 313 304 300 301 303 303 308 305 303 301 302 303 303 302
349 355 352 343 339 338 338 341 343 344 343 341 344 346 342 341 341 339 335 334 335 338 338 333 329 327 326 321 317 319 313 309 306 306 308 310 311 308 308 307 303 300 301
341 339 339 332 329 330 329 330 329 326 330 334 333 333 332 328 326 325 323 318 319 321 327 327 321 318 316 315 316 315 316 314 311 307 306 311 313 312 310 308 305 302 301
325 322 319 315 314 320 318 316 314 310 312 317 320 322 319 318 315 311 308 305 308 311 312 315 314 314 314 311 309 310 308 305 303 301 303 307 308 310 310 308 306 304 303
303 303 303 298 294 301 303 304 302 300 301 305 308 310 309 309 311 308 304 299 301 302 304 308 308 310 310 309 304 301 302 301 301 299 298 301 304 306 308 309 307 305 304
289 292 293 292 292 294 291 296 295 296 298 300 302 303 305 305 306 304 304 300 296 297 301 306 305 310 311 307 302 298 300 302 301 298 299 300 303 306 306 307 307 305 303
283 290 291 288 286 289 291 292 291 294 295 295 296 299 301 301 301 300 300 299 297 295 294 296 300 304 307 309 305 299 298 300 300 299 299 300 301 305 306 306 307 307 306
281 284 289 287 285 286 289 291 290 291 291 291 291 294 295 297 298 297 297 298 298 298 293 294 298 301 303 304 303 300 296 296 296 295 296 298 298 300 303 304 304 306 306
278 279 283 285 288 289 290 290 289 289 288 289 289 291 291 292 294 296 297 296 297 296 292 293 298 300 300 301 300 297 296 295 292 293 294 294 294 295 298 301 301 302 301
279 278 280 280 285 286 286 288 288 290 287 284 285 288 289 289 290 292 294 291 290 290 290 292 297 298 298 299 296 295 295 295 293 291 291 292 293 294 294 297 297 298 297
281 280 279 279 283 282 283 286 286 287 284 280 280 283 286 286 287 288 287 287 288 288 290 292 294 296 296 296 294 293 292 293 292 291 292 294 294 294 293 294 296 296 295
279 281 283 281 281 281 282 285 287 287 285 281 279 281 285 285 285 285 284 286 286 287 289 289 291 292 293 293 291 290 290 290 290 291 292 292 293 293 293 293 293 294 293
279 281 280 278 279 279 282 284 283 282 282 285 285 284 284 284 284 285 284 284 284 286 287 288 287 289 290 290 290 289 289 288 288 290 292 292 293 292 292 293 293 292 292
277 280 280 278 278 282 283 280 283 285 284 286 287 284 282 283 282 282 282 282 284 287 286 286 286 287 286 287 287 286 287 288 290 291 291 292 291 291 291 293 292 291 291
278 279 281 280 280 282 284 283 284 285 285 285 284 283 281 280 280 280 282 282 282 285 288 288 287 286 285 283 284 285 287 288 289 289 288 289 290 291 291 291 292 291 291
279 281 281 280 280 280 281 281 282 283 283 283 283 282 279 278 278 279 280 280 281 282 285 288 287 286 284 282 282 283 285 287 287 287 288 289 290 290 290 290 290 290 292
276 277 278 278 276 277 279 280 281 281 282 282 282 281 280 278 276 275 276 278 279 282 284 286 287 285 283 283 282 282 283 285 288 288 287 289 290 290 290 290 290 291 291
276 278 277 277 276 276 277 278 278 279 279 281 281 282 280 279 276 274 275 277 278 280 283 285 286 286 285 283 284 283 283 284 286 288 287 288 289 289 290 290 291 290 290
276 278 277 276 275 275 275 276 277 278 278 279 280 280 279 278 276 275 276 277 279 280 283 285 286 285 285 284 285 285 285 286 286 288 287 287 288 289 291 292 292 291 291
275 276 275 275 276 275 275 276 277 278 278 278 277 277 278 277 276 275 277 277 278 281 283 285 286 286 285 285 285 285 286 288 288 288 286 286 287 289 290 290 291 292 292
272 274 275 275 275 275 275 275 276 276 276 275 276 276 276 275 277 277 278 277 278 280 283 284 284 283 283 283 283 284 285 286 287 287 287 287 287 288 289 290 292 293 292
273 272 273 274 275 276 276 275 274 275 274 274 275 275 273 273 275 276 277 278 277 279 281 283 284 283 283 282 282 284 284 285 287 288 289 287 286 287 288 290 291 293 294
275 273 273 274 276 276 278 276 275 274 273 273 272 272 272 271 271 273 275 277 278 280 280 281 282 283 283 282 283 284 285 286 288 288 288 287 286 287 290 291 292 294 294
Height
5909 5908 5907 5905 5904 5904 5903 5902 5901 5900 5899 5898 5897 5896 5895 5895 5894 5893 5892 5892 5891 5890 5889 5889 5888 5887 5887 5886 5885 5885 5884 5883 5883 5882 5881 5880 5879 5878 5877 5876 5874 5873 5872
5909 5908 5906 5905 5904 5904 5903 5902 5901 5900 5899 5899 5898 5897 5896 5895 5894 5893 5892 5892 5891 5890 5889 5888 5887 5886 5885 5885 5884 5883 5882 5882 5881 5880 5879 5878 5877 5876 5874 5873 5872 5871 5869
5908 5907 5906 5905 5904 5903 5903 5902 5901 5900 5900 5899 5898 5897 5896 5895 5894 5893 5892 5891 5890 5889 5888 5887 5886 5885 5884 5883 5883 5882 5881 5880 5879 5878 5877 5876 5875 5873 5872 5871 5869 5868 5867
5907 5906 5905 5904 5904 5903 5902 5902 5901 5900 5899 5898 5897 5896 5895 5894 5893 5892 5891 5890 5889 5888 5887 5886 5885 5884 5883 5882 5881 5880 5879 5878 5877 5876 5874 5874 5872 5871 5870 5868 5867 5865 5864
5906 5905 5904 5903 5903 5902 5902 5901 5900 5899 5899 5898 5897 5896 5895 5894 5892 5891 5890 5889 5888 5887 5886 5885 5884 5883 5882 5880 5879 5878 5877 5876 5875 5874 5872 5871 5870 5869 5867 5866 5864 5863 5861
5905 5904 5903 5903 5902 5901 5900 5900 5899 5898 5897 5896 5895 5894 5893 5892 5891 5890 5889 5887 5886 5885 5884 5883 5882 5880 5879 5878 5877 5876 5875 5874 5873 5872 5870 5869 5868 5866 5865 5863 5862 5860 5859
5903 5903 5902 5901 5900 5900 5899 5898 5898 5897 5896 5895 5894 5892 5891 5890 5889 5888 5887 5885 5884 5883 5882 5880 5879 5878 5876 5875 5874 5873 5872 5871 5870 5869 5868 5867 5865 5864 5862 5861 5859 5857 5856
5901 5901 5900 5899 5898 5898 5897 5896 5896 5895 5894 5892 5891 5890 5889 5888 5886 5885 5884 5883 5882 5880 5879 5877 5876 5875 5874 5872 5871 5870 5869 5868 5867 5866 5865 5863 5862 5861 5859 5858 5856 5855 5853
5898 5898 5897 5897 5896 5895 5894 5893 5893 5892 5891 5889 5888 5887 5886 5885 5883 5882 5881 5879 5878 5877 5876 5875 5873 5872 5870 5869 5868 5867 5865 5864 5863 5862 5861 5860 5858 5857 5856 5854 5853 5851 5850
5895 5895 5894 5894 5893 5892 5891 5891 5890 5889 5888 5886 5885 5884 5883 5881 5880 5879 5877 5876 5875 5874 5873 5872 5870 5869 5867 5866 5864 5863 5862 5861 5860 5858 5857 5856 5855 5853 5852 5850 5849 5847 5846
5892 5891 5891 5890 5890 5889 5887 5887 5886 5885 5884 5883 5881 5880 5879 5878 5877 5875 5873 5871 5870 5869 5868 5868 5866 5865 5863 5862 5861 5859 5858 5857 5856 5854 5853 5852 5851 5849 5848 5846 5845 5843 5841
5887 5887 5886 5886 5885 5884 5884 5883 5881 5880 5879 5878 5877 5876 5875 5873 5872 5870 5868 5867 5866 5865 5864 5863 5862 5861 5859 5858 5856 5855 5854 5852 5851 5850 5849 5848 5846 5845 5843 5842 5840 5838 5837
5883 5882 5881 5880 5880 5880 5879 5878 5877 5875 5874 5873 5872 5871 5870 5868 5867 5866 5864 5862 5861 5860 5860 5859 5857 5856 5855 5853 5852 5851 5849 5848 5847 5845 5844 5843 5841 5840 5838 5837 5835 5833 5832
5877 5877 5876 5875 5875 5874 5873 5872 5871 5870 5869 5868 5867 5866 5864 5863 5862 5860 5859 5858 5857 5856 5855 5854 5852 5851 5850 5848 5847 5846 5844 5843 5841 5840 5839 5837 5836 5834 5833 5832 5830 5828 5826
5871 5871 5871 5870 5869 5868 5867 5866 5865 5864 5863 5862 5861 5860 5859 5857 5856 5855 5854 5853 5852 5851 5850 5848 5847 5845 5844 5843 5842 5840 5839 5837 5836 5835 5833 5832 5830 5829 5827 5826 5824 5822 5820
5865 5865 5865 5864 5863 5862 5861 5860 5859 5858 5857 5856 5855 5854 5853 5852 5851 5849 5848 5847 5846 5845 5844 5842 5841 5840 5839 5837 5836 5835 5833 5832 5830 5829 5827 5825 5824 5822 5821 5819 5817 5816 5814
5859 5859 5858 5858 5857 5855 5854 5853 5853 5853 5851 5850 5849 5847 5846 5846 5844 5843 5842 5841 5840 5838 5837 5836 5835 5834 5832 5831 5829 5828 5827 5826 5824 5823 5821 5819 5817 5816 5814 5812 5810 5808 5806
5852 5852 5851 5851 5850 5849 5848 5847 5847 5846 5845 5844 5842 5841 5839 5838 5838 5837 5836 5834 5833 5832 5830 5829 5828 5827 5825 5824 5823 5822 5821 5819 5818 5816 5814 5812 5811 5809 5807 5805 5803 5801 5798
5846 5845 5844 5844 5843 5842 5841 5841 5840 5839 5838 5837 5835 5834 5832 5831 5830 5830 5828 5828 5827 5825 5824 5823 5821 5820 5819 5818 5817 5815 5814 5813 5811 5809 5807 5805 5804 5802 5799 5798 5795 5793 5790
5838 5838 5837 5836 5835 5835 5834 5834 5833 5832 5831 5830 5828 5827 5825 5825 5824 5822 5821 5820 5819 5818 5817 5815 5814 5813 5812 5810 5809 5808 5807 5805 5803 5802 5800 5798 5796 5794 5791 5789 5787 5785 5783
5830 5830 5829 5828 5827 5827 5826 5826 5826 5825 5823 5822 5821 5820 5818 5817 5816 5815 5814 5813 5812 5811 5810 5808 5807 5805 5804 5803 5802 5801 5799 5798 5796 5794 5792 5790 5788 5786 5784 5782 5779 5777 5774
5821 5821 5820 5820 5819 5819 5818 5818 5817 5816 5815 5814 5813 5812 5810 5809 5808 5807 5807 5805 5804 5803 5802 5801 5799 5798 5796 5795 5794 5793 5791 5790 5789 5786 5784 5782 5780 5778 5776 5774 5771 5769 5766
5812 5812 5811 5810 5810 5810 5809 5809 5808 5807 5806 5806 5805 5803 5802 5801 5800 5799 5799 5797 5796 5795 5794 5792 5791 5790 5788 5787 5786 5785 5783 5782 5780 5778 5776 5774 5772 5770 5768 5765 5763 5760 5758
5802 5802 5801 5801 5801 5800 5800 5800 5799 5798 5797 5797 5796 5795 5794 5793 5792 5791 5790 5789 5788 5787 5786 5784 5783 5782 5780 5779 5778 5776 5775 5773 5771 5769 5767 5765 5763 5761 5759 5757 5754 5752 5749
5792 5792 5792 5792 5791 5790 5790 5790 5789 5788 5788 5787 5786 5786 5785 5784 5783 5782 5781 5780 5779 5778 5777 5776 5774 5773 5772 5771 5770 5768 5766 5764 5763 5761 5759 5757 5754 5752 5750 5748 5745 5743 5740
5783 5782 5782 5782 5781 5780 5780 5779 5779 5778 5777 5777 5776 5776 5776 5774 5773 5773 5772 5771 5771 5769 5768 5767 5766 5764 5763 5762 5761 5759 5757 5755 5754 5752 5749 5747 5745 5743 5741 5738 5736 5733 5730